Current weather by "City, St" or "zip code"  
 

Current Conditions: Okmulgee, Okmulgee Municipal Airport, OK

Fair


49.0 F

Last Updated on Oct 30 2020, 9:35 pm CDT
Humidity: 66%
Wind Speed: SE 3.5 mph
Barometer 30.21 in
Dewpoint: 38.3 F
Visibility: 10.00 mi
Precip: --
Heat Index: NA
Wind Chill: NA
Current conditions at:

Okmulgee, Okmulgee Municipal Airport, OK (KOKM)

Lat: 35.66806 Lon: 95.94861

Local Radar Image active severe weather and emergency alerts image image weather storm and storm spotter reports image weather observation monitoring service image
Local
Radar
Active
Alerts
Storm Reports Obs
Monitoring

Sign-up For Email & Text Message Weather Alert Notification Services



Advertise Here

Observation History for Okmulgee, Okmulgee Municipal Airport, OK


Time Wind
(mph)
Vis
(mi)
Weather Precip (in) Temperature (F) Relative
Humidity
Wind
Chill
(F)
Heat
Index
(F)
Pressure
Air Dwpt altimeter
(in)
sea level
(mb)
Rmks
9:35 pm CDT SE 3.5 10.00 Fair -- 49.0 38.3 66% NA NA 30.21 M
8:55 pm CDT E 3.5 10.00 Fair -- 52.0 37.9 59% NA NA 30.21 M
7:55 pm CDT E 9.2 10.00 Fair -- 51.0 38.3 61% 48 NA 30.21 M
7:35 pm CDT SE 6.9 10.00 Fair -- 53.0 38.5 57% 51 NA 30.20 M
6:55 pm CDT E 8.1 10.00 Fair -- 56.0 38.8 53% 54 NA 30.19 M
5:55 pm CDT SE 4.6 10.00 Fair -- 63.0 38.7 41% 64 NA 30.20 M
4:55 pm CDT SE 3.5 10.00 Fair -- 67.0 37.0 34% NA NA 30.21 M
3:55 pm CDT N 0.0 10.00 Fair -- 66.0 36.3 33% NA NA 30.22 M
2:55 pm CDT SE 3.5 10.00 Fair -- 65.0 36.0 34% NA NA 30.23 M
1:55 pm CDT S 4.6 10.00 Fair -- 63.0 35.6 37% 64 NA 30.26 M
12:55 pm CDT SE 8.1 10.00 Fair -- 60.0 34.7 39% 59 NA 30.29 M
11:55 am CDT S 6.9 10.00 Fair -- 58.0 36.5 45% 57 NA 30.31 M
10:55 am CDT SE 3.5 10.00 Fair -- 53.0 34.9 50% NA NA 30.33 M
10:35 am CDT SE 4.6 10.00 Fair -- 51.0 36.1 58% 50 NA 30.33 M
9:55 am CDT N 0.0 10.00 Fair -- 44.0 37.9 78% NA NA 30.33 M
8:55 am CDT N 0.0 10.00 Fair -- 36.0 36.3 100% NA NA 30.32 M
7:55 am CDT N 0.0 7.00 Fair -- 32.0 31.8 100% NA NA 30.31 M
7:35 am CDT N 0.0 10.00 Fair -- 32.0 32.0 100% NA NA 30.31 M
6:55 am CDT N 0.0 10.00 Fair -- 32.0 32.0 100% NA NA 30.31 M
5:55 am CDT N 0.0 10.00 Fair -- 32.0 32.0 100% NA NA 30.29 M
5:35 am CDT N 0.0 10.00 Fair -- 32.0 32.0 100% NA NA 30.29 M
4:55 am CDT N 0.0 10.00 Fair -- 33.0 32.9 100% NA NA 30.27 M

Regional Weather Observation


Cushing, Cushing Municipal Airport, OK (KCUH)

Fair
43.0 F

Tulsa - Jones Jr. Airport, OK (KRVS)

Fog/Mist
43.0 F

Chandler, Chandler Municipal Airport, OK (KCQB)

Light Snow Fog/Mist
31.0 F

Tulsa, Tulsa International Airport, OK (KTUL)

Mostly Cloudy
50.0 F

Seminole, Seminole Municipal Airport, OK (KSRE)

NULL
63.0 F

Muskogee-Davis Regional Airport, OK (KMKO)

Fair
44.0 F